Preview of NWS' New Version of Forecast
This preview is not operational and should not be used for support decisions.

Regional Weather Roundup (RWR)

Issued by National Weather Service (NWS)

                            
000
ASUS44 KMEG 201610
RWRTN 
TENNESSEE HOURLY STATE WEATHER ROUNDUP
NATIONAL WEATHER SERVICE MEMPHIS TN
1100 AM CDT THU JUN 20 2019

TNZ002-004-019-021-049-052-054-088>092-201700-
WEST TENNESSEE
  
CITY           SKY/WX    TMP DP  RH WIND       PRES   REMARKS
MEMPHIS INTL   PTSUNNY   79  69  71 W10G22    29.83R                  
NWS MEMPHIS      N/A     79 N/A N/A MISG        N/A                   
JACKSON        CLOUDY    77  69  76 W10       29.82R                  
DYERSBURG      PTSUNNY   79  70  74 W9        29.81R                  
COVINGTON      PTSUNNY   79  72  78 W9        29.81R                  
UNION CITY     PTSUNNY   81  70  69 NW8G17    29.77R                  
BOLIVAR        CLOUDY    79  70  73 SW12      29.82R                  
HUNTINGDON     CLOUDY    77  70  78 W9        29.79R                  
LEXINGTON      CLOUDY    77  70  78 VRB7      29.79R                  
SELMER         PTSUNNY   77  68  73 NW9G16    29.81R                  
SAVANNAH       PTSUNNY   81  70  69 W10       29.80R                  
$$

TNZ008-025-027-028-033-062-065-066-201700-
NORTH MIDDLE TENNESSEE
  
CITY           SKY/WX    TMP DP  RH WIND       PRES   REMARKS
NASHVILLE      PTSUNNY   76  68  76 SW8       29.79R                  
DICKSON        CLOUDY    73  68  83 W9G16     29.78R                  
PORTLAND       MOSUNNY   73  68  83 SW9G15    29.76S                  
CLARKSVILLE    PTSUNNY   75  69  81 W9        29.76R                  
LEBANON        MOSUNNY   73  68  83 W5G12     29.78R                  
SMYRNA         FAIR      75  69  81 S7        29.80S                  
MURFREESBORO   PTSUNNY   75  68  78 SW8       29.78S                  
COOKEVILLE     PTSUNNY   72  68  88 S7        29.81F                  
LIVINGSTON     PTSUNNY   70  66  88 VRB6G12   29.80F                  
GALLATIN       PTSUNNY   72  70  94 VRB6      29.81S                  
CROSSVILLE     CLOUDY    68  65  90 W7        29.88R                  
ROCKWOOD       PTSUNNY   70  66  88 W6        29.86S                  
$$

TNZ061-075-076-078-094-096-097-201700-
SOUTH MIDDLE TENNESSEE
  
CITY           SKY/WX    TMP DP  RH WIND       PRES   REMARKS
LAWRENCEBURG   PTSUNNY   77  68  73 SW9       29.81F                  
LEWISBURG      CLOUDY    77  70  78 SW8       29.80S                  
FAYETTEVILLE   PTSUNNY   75  68  78 SW9G15    29.83R                  
TULLAHOMA      PTSUNNY   73  68  83 SW6       29.83R                  
WINCHESTER     PTSUNNY   73  66  78 SW7       29.83S                  
MCMINNVILLE    MOSUNNY   73  68  83 VRB5      29.82F                  
COLUMBIA       MOSUNNY   79  72  78 SW9       29.78S                  
SHELBYVILLE    CLOUDY    73  70  88 S13       29.81S                  
$$

TNZ017-018-042-046-047-201700-
NORTHEAST TENNESSEE
  
CITY           SKY/WX    TMP DP  RH WIND       PRES   REMARKS
TRI CITIES     LGT RAIN  71  65  81 SW12      29.84S                  
ELIZABETHTON   CLOUDY    72  66  83 VRB6G15   29.85R                  
GREENEVILLE    PTSUNNY   72  70  94 VRB6G13   29.85R                  
$$

TNZ012-013-036-069-073-074-201700-
CENTRAL EAST TENNESSEE
  
CITY           SKY/WX    TMP DP  RH WIND       PRES   REMARKS
KNOXVILLE      LGT RAIN  75  67  76 SW16      29.84R                  
OAK RIDGE      CLOUDY    73  67  81 VRB3      29.85R                  
DOWNTOWN KNOXV PTSUNNY   75  70  83 W8G16     29.84R                  
GATLINBURG     PTSUNNY   79  66  65 W10G21    29.83R                  
MORRISTOWN     PTSUNNY   73  68  83 W12G18    29.83R                  
JACKSBORO      MOSUNNY   73  64  73 VRB7      29.86R                  
$$

TNZ083-085-099-201700-
SOUTHEAST TENNESSEE
  
CITY           SKY/WX    TMP DP  RH WIND       PRES   REMARKS
CHATTANOOGA    LGT RAIN  76  68  76 S10       29.84S                  
$$

SKY/WX REPORTED AS FAIR MEANS FEW OR NO CLOUDS BELOW
12 THOUSAND FEET.